Weather reports worldwide

Advertisment
Thorney Island, United Kingdom (3872): temperature & dewpoint: 09.09.2019 09:00:00 - 15.09.2019 09:00:00 (BST)Thorney Island, United Kingdom (3872): temperature -20cm & temperature -100cm: 09.09.2019 09:00:00 - 15.09.2019 09:00:00 (BST)Thorney Island, United Kingdom (3872): wind speed & gusts: 09.09.2019 09:00:00 - 15.09.2019 09:00:00 (BST)Thorney Island, United Kingdom (3872): wind direction: 09.09.2019 09:00:00 - 15.09.2019 09:00:00 (BST)Thorney Island, United Kingdom (3872): reduced air pressure: 09.09.2019 09:00:00 - 15.09.2019 09:00:00 (BST)Thorney Island, United Kingdom (3872): visibility: 09.09.2019 09:00:00 - 15.09.2019 09:00:00 (BST)Thorney Island, United Kingdom (3872): precipitation: 09.09.2019 09:00:00 - 15.09.2019 09:00:00 (BST)
Date & Time tt [°C] td [°C] tt -20cm [°C] tt -100cm [°C] ff [km/h] ff [kn] fx [km/h] fx [kn] dd ppp [hPa] vv [km] rr [mm]
15.09.2019 09:00:00 13,2 12,6 - - 9 5 - - WNW 1026,2 15 0,0
15.09.2019 08:00:00 10,1 9,9 - - 2 1 - - NNW 1025,8 15 0,0
15.09.2019 07:00:00 8,0 7,8 - - 8 4 - - NW 1025,7 13 0,0
15.09.2019 06:00:00 6,7 6,3 - - 4 2 - - NNW 1025,9 28 0,0
15.09.2019 05:00:00 7,9 7,5 - - 2 1 - - N 1026,0 18 0,0
15.09.2019 04:00:00 8,2 7,8 - - 2 1 - - NNW 1026,4 23 0,0
15.09.2019 03:00:00 9,2 8,8 - - 2 1 - - N 1026,6 11 0,2
15.09.2019 02:00:00 9,2 8,6 - - 4 2 - - NNW 1027,3 12 0,0
15.09.2019 01:00:00 10,7 10,2 - - 4 2 - - NNW 1027,3 17 0,0
15.09.2019 00:00:00 11,8 11,3 - - 9 5 - - NNW 1027,7 24 0,0
14.09.2019 23:00:00 11,2 10,5 - - 5 3 - - N 1028,2 11 0,0
14.09.2019 22:00:00 12,0 11,2 - - 2 1 - - N 1028,6 17 0,0
14.09.2019 21:00:00 12,9 11,6 - - 4 2 - - NNW 1028,9 35 0,0
14.09.2019 20:00:00 14,7 12,1 - - 2 1 - - NNW 1029,1 35 0,0
14.09.2019 19:00:00 16,7 12,9 - - 8 4 - - S 1029,1 35 0,0
14.09.2019 18:00:00 17,6 13,3 - - 9 5 - - S 1029,2 40 0,0
14.09.2019 17:00:00 18,5 13,9 - - 15 8 - - S 1029,7 40 0,0
14.09.2019 16:00:00 18,7 12,9 - - 13 7 - - SSW 1030,0 40 0,0
14.09.2019 15:00:00 19,3 13,5 - - 15 8 - - SSW 1030,8 30 0,0
14.09.2019 14:00:00 20,8 12,1 - - 9 5 - - ESE 1031,5 50 0,0
14.09.2019 13:00:00 19,4 11,1 - - 11 6 - - ESE 1032,3 25 0,0
14.09.2019 12:00:00 18,9 11,7 - - 13 7 - - E 1033,0 17 0,0
14.09.2019 11:00:00 18,2 12,6 - - 15 8 - - E 1033,1 30 0,0
14.09.2019 10:00:00 16,5 11,9 16,7 16,2 15 8 - - E 1033,7 27 0,0
14.09.2019 09:00:00 14,4 11,6 - - 13 7 - - NE 1033,9 40 0,0
14.09.2019 08:00:00 11,6 10,4 - - 11 6 - - NNE 1034,0 18 0,0
14.09.2019 07:00:00 9,3 8,6 - - 9 5 - - NE 1033,9 25 0,0
14.09.2019 06:00:00 9,2 8,2 - - 8 4 - - NE 1034,0 23 0,0
14.09.2019 05:00:00 9,8 8,8 - - 9 5 - - NNE 1034,3 21 0,0
14.09.2019 04:00:00 10,1 9,2 - - 9 5 - - NNE 1034,9 24 0,0
14.09.2019 03:00:00 11,0 9,8 - - 11 6 - - NE 1035,0 28 0,0
14.09.2019 02:00:00 11,1 10,0 - - 11 6 - - NE 1035,0 35 0,0
14.09.2019 01:00:00 12,5 11,3 - - 11 6 - - ENE 1035,3 30 0,0
14.09.2019 00:00:00 13,6 12,4 - - 11 6 - - E 1035,5 22 0,0
13.09.2019 23:00:00 13,5 12,9 - - 8 4 - - NNE 1035,4 15 0,0
13.09.2019 22:00:00 13,0 11,8 - - 5 3 - - NNE 1035,3 16 0,0
13.09.2019 21:00:00 13,9 12,3 - - 4 2 - - E 1035,2 30 0,0
13.09.2019 20:00:00 15,1 12,5 - - 8 4 - - ESE 1034,7 45 0,0
13.09.2019 19:00:00 17,2 12,7 - - 9 5 - - S 1034,3 45 0,0
13.09.2019 18:00:00 18,8 11,8 - - 9 5 - - S 1034,0 40 0,0
13.09.2019 17:00:00 19,3 12,5 - - 11 6 - - S 1034,1 35 0,0
13.09.2019 16:00:00 19,5 12,9 - - 13 7 - - S 1033,9 45 0,0
13.09.2019 15:00:00 19,8 12,5 - - 13 7 - - S 1034,2 50 0,0
13.09.2019 14:00:00 20,6 10,4 - - 9 5 - - ENE 1034,3 21 0,0
13.09.2019 13:00:00 19,8 11,6 - - 11 6 - - ENE 1034,4 22 0,0
13.09.2019 12:00:00 18,5 11,0 - - 13 7 - - NNE 1034,6 50 0,0
13.09.2019 11:00:00 16,9 10,6 - - 16 9 - - NNE 1034,9 45 0,0
13.09.2019 10:00:00 15,8 10,7 16,7 16,2 15 8 - - NE 1034,6 50 0,0
13.09.2019 09:00:00 14,8 10,0 - - 15 8 - - NNE 1033,7 40 0,0
13.09.2019 08:00:00 14,3 9,8 - - 15 8 - - NNE 1033,1 45 0,0
13.09.2019 07:00:00 14,5 11,6 - - 11 6 - - NNE 1032,6 50 0,0
13.09.2019 06:00:00 15,0 13,8 - - 13 7 - - NNE 1032,0 35 0,8
13.09.2019 05:00:00 16,5 15,6 - - 9 5 - - WNW 1030,9 18 0,0
13.09.2019 04:00:00 17,0 15,8 - - 9 5 - - W 1030,7 17 0,0
13.09.2019 03:00:00 17,2 15,9 - - 13 7 - - W 1030,5 18 0,0
13.09.2019 02:00:00 17,2 15,8 - - 11 6 - - W 1030,5 20 0,0
13.09.2019 01:00:00 17,4 15,7 - - 21 11 - - WSW 1030,4 18 0,0
13.09.2019 00:00:00 17,2 15,4 - - 15 8 - - W 1030,1 19 0,0
12.09.2019 23:00:00 17,2 15,1 - - 21 11 - - W 1030,2 17 0,0
12.09.2019 22:00:00 17,2 15,1 - - 22 12 - - W 1030,1 21 0,0
12.09.2019 21:00:00 17,4 14,8 - - 26 14 - - WSW 1029,4 22 0,0
12.09.2019 20:00:00 17,3 14,7 - - 34 18 - - WSW 1029,4 30 0,0
12.09.2019 19:00:00 17,8 15,4 - - 29 16 - - WSW 1029,0 24 0,0
12.09.2019 18:00:00 18,0 15,3 - - 31 17 48 26 WSW 1029,0 30 0,0
12.09.2019 17:00:00 19,4 15,4 - - 34 18 - - WSW 1028,7 30 0,0
12.09.2019 16:00:00 18,9 15,9 - - 28 15 - - WSW 1029,0 40 0,0
12.09.2019 15:00:00 19,3 15,7 - - 31 17 46 25 WSW 1029,0 35 0,0
12.09.2019 14:00:00 20,1 16,0 - - 26 14 - - SW 1029,0 30 0,0
12.09.2019 13:00:00 20,1 14,8 - - 28 15 - - WSW 1029,0 30 0,0
12.09.2019 12:00:00 18,9 15,8 - - 29 16 - - WSW 1029,3 40 0,0
12.09.2019 11:00:00 18,8 16,7 - - 22 12 - - WSW 1029,0 35 0,0
12.09.2019 10:00:00 18,3 16,6 16,4 16,2 18 10 - - WSW 1028,3 35 0,0
12.09.2019 09:00:00 17,8 16,8 - - 16 9 - - WSW 1028,0 30 0,0
12.09.2019 08:00:00 16,6 15,8 - - 9 5 - - W 1027,6 35 0,0
12.09.2019 07:00:00 16,0 14,1 - - 11 6 - - W 1027,2 40 0,0
12.09.2019 06:00:00 15,4 13,6 - - 11 6 - - W 1026,4 45 0,0
12.09.2019 05:00:00 15,1 12,9 - - 15 8 - - W 1026,2 50 0,0
12.09.2019 04:00:00 14,9 13,4 - - 15 8 - - W 1025,9 50 0,0
12.09.2019 03:00:00 15,5 13,2 - - 16 9 - - W 1025,8 50 0,0
12.09.2019 02:00:00 15,9 13,4 - - 15 8 - - W 1025,6 50 0,0
12.09.2019 01:00:00 16,6 15,2 - - 15 8 - - W 1025,1 50 0,0
12.09.2019 00:00:00 17,1 16,1 - - 16 9 - - WSW 1024,7 30 0,0
11.09.2019 23:00:00 17,0 16,0 - - 18 10 - - WSW 1024,1 28 0,0
11.09.2019 22:00:00 17,5 16,5 - - 18 10 - - WSW 1023,9 30 0,0
11.09.2019 21:00:00 17,5 16,5 - - 22 12 - - WSW 1023,5 23 0,0
11.09.2019 20:00:00 17,7 16,5 - - 28 15 - - WSW 1022,8 10 0,0
11.09.2019 19:00:00 18,2 16,3 - - 26 14 - - WSW 1022,1 24 0,0
11.09.2019 18:00:00 18,8 16,5 - - 28 15 - - WSW 1021,7 18 0,0
11.09.2019 17:00:00 18,6 16,5 - - 34 18 46 25 WSW 1021,5 24 0,0
11.09.2019 16:00:00 18,1 16,2 - - 34 18 48 26 WSW 1021,5 16 0,0
11.09.2019 15:00:00 18,0 16,0 - - 31 17 - - WSW 1021,3 18 0,0
11.09.2019 14:00:00 18,3 15,8 - - 28 15 - - WSW 1021,3 26 0,0
11.09.2019 13:00:00 18,5 16,1 - - 34 18 - - WSW 1021,3 24 0,0
11.09.2019 12:00:00 18,0 15,8 - - 34 18 46 25 WSW 1021,1 19 0,0
11.09.2019 11:00:00 18,0 15,8 - - 28 15 - - WSW 1020,9 25 0,0
11.09.2019 10:00:00 17,2 15,3 16,2 16,2 31 17 52 28 WSW 1020,7 24 0,0
11.09.2019 09:00:00 16,3 14,4 - - 34 18 46 25 WSW 1020,5 19 0,0
11.09.2019 08:00:00 16,0 13,7 - - 34 18 - - WSW 1020,2 21 0,0
11.09.2019 07:00:00 15,5 12,9 - - 28 15 - - WSW 1020,2 23 0,0
11.09.2019 06:00:00 14,9 11,5 - - 22 12 - - WSW 1020,4 27 0,0
11.09.2019 05:00:00 14,4 10,8 - - 21 11 - - WSW 1020,6 30 0,0
11.09.2019 04:00:00 14,3 10,3 - - 22 12 - - WSW 1020,8 35 0,0
11.09.2019 03:00:00 13,9 9,2 - - 18 10 - - WSW 1021,3 40 0,0
11.09.2019 02:00:00 14,1 9,9 - - 13 7 - - W 1021,8 35 0,0
11.09.2019 01:00:00 13,7 9,1 - - 11 6 - - W 1021,4 50 0,0
11.09.2019 00:00:00 14,1 8,5 - - 16 9 - - WNW 1021,9 50 0,0
10.09.2019 23:00:00 14,4 8,8 - - 11 6 - - WNW 1021,8 45 0,0
10.09.2019 22:00:00 14,9 10,9 - - 13 7 - - WNW 1021,5 45 0,0
10.09.2019 21:00:00 15,1 11,0 - - 9 5 - - W 1021,3 50 0,0
10.09.2019 20:00:00 16,3 13,5 - - 9 5 - - W 1020,9 40 0,0
10.09.2019 19:00:00 16,8 13,1 - - 13 7 - - WSW 1020,5 45 0,0
10.09.2019 18:00:00 18,6 11,2 - - 13 7 - - WNW 1020,1 40 0,0
10.09.2019 17:00:00 18,0 12,6 - - 18 10 - - W 1020,4 50 0,0
10.09.2019 16:00:00 19,1 12,8 - - 18 10 - - SW 1020,3 30 0,0
10.09.2019 15:00:00 18,2 12,1 - - 11 6 - - WSW 1020,2 45 0,0
10.09.2019 14:00:00 18,4 10,9 - - 9 5 - - NNW 1019,9 50 0,0
10.09.2019 13:00:00 18,2 12,6 - - 13 7 - - WNW 1020,0 45 0,0
10.09.2019 12:00:00 18,1 12,5 - - 8 4 - - NNW 1020,2 35 0,0
10.09.2019 11:00:00 15,9 12,6 - - 9 5 - - NNW 1020,0 50 0,0
10.09.2019 10:00:00 14,3 12,6 15,9 16,2 13 7 - - NNW 1019,5 15 0,0
10.09.2019 09:00:00 12,6 12,1 - - 11 6 - - NW 1018,9 15 0,0
10.09.2019 08:00:00 11,1 10,9 - - 9 5 - - NW 1018,0 13 0,0
10.09.2019 07:00:00 10,4 10,2 - - 8 4 - - N 1017,1 15 0,0
10.09.2019 06:00:00 8,8 8,3 - - 4 2 - - N 1016,3 0,4 0,0
10.09.2019 05:00:00 10,1 9,7 - - 5 3 - - NE 1015,7 3,6 0,0
10.09.2019 04:00:00 11,3 10,9 - - 9 5 - - NNE 1015,6 10 0,0
10.09.2019 03:00:00 11,8 11,5 - - 8 4 - - NNE 1015,0 13 0,0
10.09.2019 02:00:00 11,7 11,5 - - 8 4 - - NE 1014,8 13 0,0
10.09.2019 01:00:00 10,7 10,3 - - 9 5 - - NE 1014,4 11 0,0
10.09.2019 00:00:00 11,2 10,6 - - 8 4 - - NE 1013,6 6 0,0
09.09.2019 23:00:00 12,9 12,4 - - 9 5 - - NE 1013,1 12 0,4
09.09.2019 22:00:00 13,8 12,3 - - 11 6 - - ESE 1012,7 7 0,2
09.09.2019 21:00:00 13,6 12,7 - - 11 6 - - E 1012,0 24 0,0
09.09.2019 20:00:00 14,3 12,3 - - 11 6 - - S 1011,4 45 0,2
09.09.2019 19:00:00 13,8 12,7 - - 4 2 - - WNW 1011,0 30 0,0
09.09.2019 18:00:00 13,6 13,0 - - 9 5 - - ENE 1010,6 21 1,4
09.09.2019 17:00:00 13,2 12,4 - - 9 5 - - E 1010,6 5 0,8
09.09.2019 16:00:00 13,3 12,3 - - 9 5 - - S 1010,8 5 0,2
09.09.2019 15:00:00 13,7 10,9 - - 26 14 - - SSW 1011,1 11 0,0
09.09.2019 14:00:00 14,7 11,4 - - 21 11 - - SSW 1011,5 45 0,0
09.09.2019 13:00:00 13,9 11,3 - - 28 15 - - SW 1012,0 30 0,0
09.09.2019 12:00:00 13,8 10,6 - - 31 17 - - SSW 1012,6 35 0,2
09.09.2019 11:00:00 14,3 11,1 - - 9 5 - - SW 1012,7 35 0,0
09.09.2019 10:00:00 14,3 11,6 16,2 16,4 18 10 - - SW 1012,9 23 0,0
09.09.2019 09:00:00 14,8 11,0 - - 15 8 - - WSW 1013,1 22 0,0

tt = temperature
td = dewpoint
tt -20cm = temperature -20cm
tt -100cm = temperature -100cm
ff = wind speed
fx = gusts
dd = wind direction
ppp = reduced air pressure
vv = visibility
rr = precipitation

Next stations